TimeEDT,TemperatureF,Dew PointF,Humidity,Sea Level PressureIn,VisibilityMPH,Wind Direction,Wind SpeedMPH,Gust SpeedMPH,PrecipitationIn,Events,Conditions,WindDirDegrees,DateUTC
12:56 AM,50.0,46.0,86,29.60,10.0,WNW,11.5,17.3,0.01,Rain,Light Rain,290,2012-10-29 04:56:00
1:56 AM,48.9,45.0,86,29.58,9.0,NW,8.1,-,0.02,Rain,Light Rain,310,2012-10-29 05:56:00
2:13 AM,48.2,44.6,87,29.59,10.0,NW,10.4,-,0.02,Rain,Light Rain,310,2012-10-29 06:13:00
2:56 AM,48.0,44.1,86,29.57,10.0,WNW,13.8,18.4,0.03,Rain,Light Rain,300,2012-10-29 06:56:00
3:56 AM,46.9,43.0,86,29.57,10.0,WNW,11.5,19.6,0.01,Rain,Light Rain,300,2012-10-29 07:56:00
4:33 AM,46.4,42.8,87,29.57,10.0,WNW,10.4,18.4,0.03,Rain,Light Rain,300,2012-10-29 08:33:00
4:56 AM,46.0,42.1,86,29.56,10.0,WNW,13.8,24.2,0.05,Rain,Light Rain,290,2012-10-29 08:56:00
5:03 AM,46.4,42.8,87,29.57,10.0,WNW,12.7,25.3,0.01,Rain,Rain,290,2012-10-29 09:03:00
5:56 AM,45.0,41.0,86,29.56,10.0,WNW,11.5,19.6,0.05,Rain,Light Rain,300,2012-10-29 09:56:00
6:18 AM,44.6,41.0,87,29.56,10.0,WNW,15.0,25.3,0.00,Rain,Light Rain,290,2012-10-29 10:18:00
6:56 AM,44.1,39.9,85,29.56,10.0,WNW,10.4,21.9,0.00,,Overcast,300,2012-10-29 10:56:00
8:56 AM,44.1,39.0,82,29.55,10.0,WNW,10.4,20.7,N/A,,Overcast,300,2012-10-29 12:56:00
9:56 AM,45.0,37.9,76,29.54,10.0,WNW,11.5,20.7,N/A,,Overcast,300,2012-10-29 13:56:00
10:56 AM,46.0,37.0,71,29.52,10.0,WNW,12.7,26.5,N/A,,Overcast,290,2012-10-29 14:56:00
12:56 PM,48.9,36.0,61,29.49,10.0,WNW,15.0,26.5,N/A,,Overcast,290,2012-10-29 16:56:00
1:56 PM,50.0,36.0,59,29.46,10.0,WNW,16.1,26.5,N/A,,Overcast,290,2012-10-29 17:56:00
2:56 PM,48.9,35.1,59,29.44,10.0,WNW,12.7,25.3,N/A,,Overcast,290,2012-10-29 18:56:00
3:56 PM,48.9,35.1,59,29.41,10.0,West,21.9,33.4,N/A,,Overcast,280,2012-10-29 19:56:00
4:56 PM,48.0,34.0,58,29.39,10.0,West,19.6,27.6,N/A,,Overcast,280,2012-10-29 20:56:00
5:56 PM,45.0,36.0,71,29.39,10.0,West,12.7,26.5,0.00,Rain,Light Rain,270,2012-10-29 21:56:00
6:56 PM,42.1,37.0,82,29.38,10.0,West,10.4,21.9,0.04,Rain,Light Rain,260,2012-10-29 22:56:00
7:32 PM,42.8,37.4,81,29.38,10.0,West,13.8,24.2,0.03,Rain,Rain,270,2012-10-29 23:32:00
7:42 PM,42.8,37.4,81,29.38,10.0,West,10.4,25.3,0.04,Rain,Light Rain,270,2012-10-29 23:42:00
8:56 PM,42.1,37.0,82,29.37,10.0,West,6.9,23.0,0.02,Rain,Light Rain,270,2012-10-30 00:56:00
9:56 PM,42.1,36.0,79,29.34,10.0,West,15.0,26.5,0.01,Rain,Light Rain,260,2012-10-30 01:56:00
10:56 PM,43.0,35.1,74,29.33,10.0,West,11.5,29.9,0.03,Rain,Light Rain,270,2012-10-30 02:56:00
11:56 PM,43.0,35.1,74,29.30,10.0,West,10.4,24.2,0.01,Rain,Light Rain,270,2012-10-30 03:56:00